Temp
23 23 22 22 21 21 20 20 19 19 19 19 19 18 18 17 18 18 18 18 18 18 18 18 18 19 19 20 20 21 20 20 16 15 15 15 15 15 14 14 14 15 14
23 23 22 22 21 21 20 20 20 19 19 19 18 18 17 17 16 16 16 16 17 17 17 17 17 18 18 18 19 19 19 19 17 15 14 13 13 13 13 13 13 13 13
23 23 22 22 22 21 20 20 20 19 19 18 18 18 17 17 16 16 15 16 16 16 16 16 16 16 17 17 17 17 18 18 17 15 14 13 12 12 12 12 11 11 11
23 23 22 22 22 21 20 20 20 19 18 18 17 17 17 16 16 16 16 15 15 15 15 15 15 15 16 16 16 16 16 16 16 15 13 13 12 12 12 11 11 11 11
24 23 23 22 21 20 20 20 19 19 18 17 17 17 17 17 16 16 16 16 15 15 15 15 15 15 15 16 16 16 16 15 15 14 13 13 13 12 12 11 10 10 10
24 24 23 21 20 20 19 19 19 18 18 17 17 17 16 16 17 16 16 16 15 15 15 14 14 15 15 15 15 16 15 15 14 14 13 13 13 13 12 11 10 10 10
23 23 22 21 20 19 19 19 19 18 18 17 17 16 16 16 16 16 16 16 15 15 15 15 15 15 14 15 15 15 15 15 15 16 14 13 13 13 12 11 11 12 11
21 20 20 20 20 19 19 19 18 18 17 17 16 16 16 16 16 16 16 16 15 15 15 15 15 15 15 15 15 15 14 14 13 13 13 13 13 13 13 12 12 12 11
18 18 18 18 19 18 19 19 18 17 17 17 16 16 16 15 15 16 16 16 15 15 14 14 14 15 14 14 15 14 14 13 13 13 13 13 14 14 13 14 12 12 10
16 16 17 17 17 18 19 18 17 17 17 16 15 15 15 15 15 16 16 16 15 15 14 14 14 14 14 14 14 14 14 13 13 13 13 13 14 13 13 13 13 12 12
15 16 16 16 17 18 18 17 16 16 16 15 15 14 14 14 15 15 15 16 16 15 14 14 14 14 14 14 14 14 14 14 13 13 13 13 13 13 13 13 13 13 12
13 14 15 16 16 17 17 16 16 16 15 14 13 13 13 13 14 14 15 15 15 15 14 14 13 13 13 13 14 14 14 15 15 14 14 13 13 13 13 12 12 13 13
13 13 14 14 15 15 16 16 15 15 14 12 13 12 11 11 12 13 13 14 14 14 13 13 13 14 14 14 14 14 14 14 14 14 13 13 13 13 13 12 12 12 12
12 12 13 14 13 14 14 14 13 13 12 12 11 11 11 11 11 12 12 12 13 13 13 13 13 14 14 14 14 14 14 14 14 14 13 13 13 13 13 13 13 12 12
12 12 12 13 12 12 12 12 12 12 12 12 11 11 11 11 11 11 12 12 12 12 13 13 13 13 14 14 14 14 13 14 14 13 13 13 13 13 13 13 12 12 11
11 11 11 12 11 11 11 10 10 11 11 11 11 11 11 11 10 11 11 11 12 12 13 13 13 13 13 14 14 14 13 13 13 13 13 13 12 12 12 12 12 12 12
13 12 12 12 11 11 11 12 11 10 10 11 11 11 11 11 11 11 11 11 12 12 13 13 13 14 13 13 13 13 13 12 12 12 12 12 12 12 12 12 12 12 12
14 13 13 13 13 13 13 13 12 12 11 11 11 11 11 11 11 11 11 12 12 13 13 13 13 13 13 14 13 13 12 12 12 12 11 12 12 11 11 11 12 12 12
14 14 14 14 13 14 13 13 13 12 13 13 12 12 11 11 11 12 12 13 13 14 13 14 14 14 13 14 13 13 12 12 11 11 11 11 11 11 11 11 11 12 11
15 16 16 15 14 13 13 13 13 13 13 14 13 13 13 12 13 13 13 13 14 14 14 15 14 14 13 13 13 13 12 12 11 11 11 11 11 11 11 11 11 11 11
17 16 17 17 17 17 16 16 15 15 14 14 15 15 15 14 14 14 14 14 15 14 14 14 14 14 13 13 13 12 12 12 12 11 11 11 11 11 11 11 11 11 11
18 18 18 18 18 17 17 17 16 15 15 15 16 15 14 14 14 14 14 15 15 15 15 14 14 14 14 13 13 12 12 12 12 11 11 11 11 12 11 11 11 11 11
18 18 18 18 18 17 17 17 17 17 16 16 16 15 15 15 15 14 14 15 15 15 15 14 14 13 12 12 12 12 12 12 12 12 12 12 11 11 11 11 11 11 11
18 18 18 17 17 17 17 17 16 16 16 17 17 15 15 13 13 13 14 14 14 14 14 13 12 12 12 11 11 11 11 11 11 11 11 11 10 11 11 11 11 10 10
17 17 16 16 16 16 16 15 15 15 15 15 13 13 11 12 12 12 12 12 11 11 10 10 9 9 9 9 9 9 10 10 10 10 10 10 11 11 9 9 10 10 10
17 16 15 15 14 14 15 14 13 14 13 11 10 10 10 9 9 9 9 9 9 8 8 7 7 6 6 6 6 6 7 8 8 8 8 8 8 8 9 9 10 9 9
Height
816 817 821 821 821 822 820 819 818 817 816 815 814 811 810 809 808 806 805 805 804 803 804 804 804 803 802 803 804 805 807 808 812 818 820 822 823 823 823 823 823 822 821
816 816 818 821 821 820 821 820 820 819 819 818 817 814 814 813 812 810 808 808 807 806 807 807 807 807 805 805 804 804 805 806 809 814 821 822 824 824 824 824 825 825 824
813 816 818 820 820 821 821 820 820 820 821 821 819 817 817 816 815 815 813 811 811 810 810 810 810 809 808 807 807 806 806 806 808 811 818 822 824 825 826 826 826 827 827
812 814 816 817 818 820 821 821 821 821 822 824 822 821 821 819 819 819 818 817 815 814 814 813 813 813 813 811 809 809 809 809 810 814 818 822 824 827 827 827 828 829 829
811 812 813 815 818 822 823 822 822 823 824 826 823 824 823 823 822 822 822 821 819 818 817 817 817 817 816 815 815 814 814 814 815 817 820 823 825 827 828 829 831 831 832
810 810 811 815 816 820 822 822 822 823 825 827 825 826 826 825 826 825 824 823 823 823 822 822 821 821 820 820 819 819 819 819 820 821 823 824 826 826 827 829 831 832 833
809 812 812 813 814 818 818 820 819 822 825 827 827 828 828 828 828 827 826 825 825 826 826 825 825 824 825 824 824 824 823 824 824 824 824 827 827 828 829 830 831 832 832
806 809 812 813 814 815 816 819 820 822 826 828 828 829 830 829 829 829 828 828 828 828 828 828 828 828 828 828 828 828 828 828 828 828 828 829 830 830 831 831 832 832 834
808 810 811 813 813 813 814 817 820 823 826 828 829 830 831 831 831 831 831 830 831 831 831 831 830 830 831 832 832 831 832 832 832 832 832 833 833 833 833 833 834 834 836
808 808 809 809 811 812 813 816 819 823 826 828 829 830 831 832 832 832 833 832 832 833 833 833 833 833 833 834 834 834 834 835 835 835 835 836 835 834 834 834 833 833 834
809 806 808 809 809 811 813 816 819 823 825 827 829 831 832 832 832 832 833 832 832 833 833 834 834 835 835 835 835 835 836 835 836 836 837 837 837 836 835 834 833 832 833
808 807 808 809 811 813 815 817 820 822 825 828 830 831 832 832 833 833 832 833 833 834 835 835 835 835 836 836 836 836 836 834 833 834 835 837 838 838 838 837 836 835 834
807 810 813 813 813 815 817 819 820 822 825 829 830 832 833 833 834 834 834 835 835 835 835 836 836 836 837 837 837 837 836 834 834 836 837 838 838 838 838 838 838 838 837
809 813 815 814 816 818 820 821 823 824 827 830 831 832 833 834 835 835 835 835 836 836 837 837 837 837 838 838 838 838 838 837 837 838 838 838 837 838 837 838 837 837 837
813 816 817 817 818 820 822 824 825 827 829 830 832 832 833 835 835 836 836 837 836 837 838 838 838 838 838 838 838 838 838 838 838 838 838 838 837 837 837 837 836 835 834
815 817 819 820 821 824 824 826 827 829 830 832 833 834 834 835 836 836 836 837 837 838 838 838 838 838 838 838 838 838 838 839 838 838 837 837 836 836 835 835 835 834 833
816 818 821 822 824 826 827 827 828 831 832 832 833 834 834 835 836 837 837 837 837 839 839 839 838 839 839 839 839 838 838 838 838 837 837 836 836 835 835 833 833 831 831
819 820 821 823 825 828 829 829 830 831 832 832 833 834 835 836 837 837 837 837 838 838 839 839 840 840 840 839 839 839 838 838 837 836 835 835 835 834 833 832 832 830 829
820 822 823 825 827 828 829 830 832 832 832 832 833 833 834 836 837 837 837 837 837 837 837 837 839 839 840 839 838 838 838 837 837 836 835 834 833 832 831 831 830 829 828
819 820 821 824 827 829 830 830 831 831 832 832 832 834 834 835 835 836 836 837 837 837 837 837 837 838 838 838 838 837 837 836 835 834 833 832 831 830 830 829 828 827 826
818 819 821 824 825 826 828 829 830 831 831 831 831 833 834 834 834 835 835 836 836 836 836 836 835 835 836 836 836 835 834 834 833 832 831 830 829 827 827 826 825 825 823
818 819 819 820 823 826 826 828 830 829 830 829 829 831 833 833 834 834 834 834 833 833 834 835 835 834 833 834 834 833 832 830 830 829 828 827 826 825 823 823 822 821 820
817 818 819 819 821 825 825 826 828 827 826 826 826 828 830 830 831 832 832 832 832 831 831 832 833 833 833 833 832 830 829 828 827 826 825 824 823 822 821 820 819 817 816
816 817 819 820 822 823 824 825 827 827 826 825 825 827 830 831 832 832 831 830 829 829 829 830 830 831 830 829 828 827 826 825 823 822 821 819 819 817 816 815 814 812 811
815 817 819 820 821 824 825 826 827 826 826 827 828 829 830 831 830 830 829 829 829 829 829 829 829 829 828 827 826 825 823 822 819 817 816 815 812 811 811 810 808 807 806
817 819 820 822 824 825 827 828 827 827 828 831 831 832 832 832 833 833 832 831 831 831 831 831 830 829 828 826 825 823 819 817 815 813 811 808 806 805 804 803 802 801 799
Wind_Speed
12 13 10 10 11 10 12 12 12 13 12 11 12 14 17 15 13 14 16 15 16 15 14 13 13 10 10 6 5 5 8 8 8 9 17 14 11 9 8 8 8 8 8
13 13 13 12 11 11 13 12 10 11 11 10 11 14 16 16 16 17 16 15 16 17 14 13 13 10 11 9 7 8 6 4 15 17 15 9 13 13 13 12 12 12 12
18 16 18 15 12 11 12 12 10 9 10 10 12 15 15 15 16 16 16 17 17 16 14 14 14 13 13 11 9 8 7 9 19 19 12 14 14 13 14 14 13 12 12
23 20 20 18 15 15 15 13 11 9 9 8 11 12 13 15 16 17 17 19 20 18 18 18 16 14 13 12 12 11 10 15 18 20 18 14 13 13 13 14 11 9 10
22 22 24 20 17 15 13 13 11 10 9 8 8 10 11 12 13 13 15 16 18 21 21 21 20 17 14 13 13 13 14 16 17 17 13 13 11 14 9 6 10 10 10
24 23 20 21 20 18 16 11 11 10 9 6 7 10 11 11 9 10 12 11 13 13 15 15 16 16 15 14 12 11 10 14 17 16 12 11 8 8 9 15 16 8 3
20 17 19 22 21 22 16 15 14 13 10 7 8 9 10 9 7 8 9 10 11 11 13 14 16 16 13 14 14 13 13 11 8 7 12 9 7 7 11 15 10 5 4
19 16 16 17 16 21 20 16 15 14 11 8 8 9 9 9 8 8 8 9 10 11 10 12 12 15 16 15 17 18 17 15 14 14 13 10 8 5 5 5 6 7 9
13 10 8 8 10 19 22 19 16 16 13 11 8 8 8 8 7 8 7 6 9 9 7 8 9 8 10 10 12 15 16 16 14 14 15 12 8 6 5 5 8 11 3
9 8 6 4 7 12 23 21 18 17 15 14 12 7 6 5 4 8 6 7 9 7 6 7 7 8 5 5 5 7 9 8 9 9 8 10 10 7 5 2 3 15 5
7 10 9 9 8 11 18 19 19 18 17 16 11 7 5 5 6 5 11 8 8 7 6 5 5 4 5 7 5 5 5 3 1 3 6 6 8 11 10 6 7 4 12
10 11 11 9 9 10 16 17 18 19 18 14 10 7 5 5 5 5 5 12 8 3 5 5 6 6 6 8 9 8 6 3 4 6 9 8 3 7 8 9 10 10 8
15 13 11 12 11 11 14 17 20 18 17 13 10 8 6 5 6 6 8 7 5 5 7 8 7 6 7 8 9 7 9 11 12 12 9 6 5 4 2 2 1 2 6
16 13 12 12 13 13 12 13 14 14 13 10 8 7 7 6 6 8 8 7 7 8 6 3 5 6 5 4 5 7 9 7 8 7 4 1 2 2 3 1 2 4 5
16 14 13 13 14 14 14 12 10 8 7 7 7 7 8 6 7 6 6 5 5 4 4 4 5 4 3 2 1 1 4 5 4 4 5 6 4 1 1 2 2 1 9
17 15 16 16 16 15 16 15 12 10 7 6 6 5 5 5 6 4 3 3 3 3 2 6 8 4 7 7 3 2 1 2 3 2 2 2 3 3 5 4 5 4 2
18 17 17 17 17 17 15 15 15 10 9 7 5 4 3 5 5 3 2 2 2 0 3 7 6 8 8 7 6 5 4 2 3 4 3 2 3 4 7 8 10 7 4
15 16 17 17 17 16 15 14 13 12 12 9 7 6 5 5 4 3 2 2 3 2 4 4 3 6 5 1 1 1 1 2 4 5 4 4 5 6 9 8 12 8 7
16 15 14 15 15 15 14 13 11 10 10 10 7 6 6 5 4 3 3 4 1 2 4 0 7 8 5 3 4 5 5 8 6 7 8 9 11 8 10 10 9 9 8
14 16 17 15 18 15 16 16 13 11 10 11 10 7 9 8 6 5 6 6 5 2 0 4 6 8 6 6 7 8 7 7 8 9 10 12 13 9 10 12 12 8 9
16 16 13 11 9 17 18 17 17 17 17 16 13 11 9 10 9 7 5 7 7 9 4 7 4 3 4 7 7 9 11 11 11 12 12 12 13 15 17 14 14 14 13
14 10 7 15 15 13 11 9 10 18 20 20 17 14 12 10 10 10 9 10 9 13 15 13 9 6 5 5 7 6 8 11 13 13 13 12 12 14 14 14 13 14 15
11 9 9 15 12 6 6 7 7 6 5 14 18 16 17 14 11 11 12 10 9 9 13 12 12 8 6 5 6 9 12 14 15 16 17 16 16 16 14 13 13 13 14
9 9 13 13 11 13 10 8 8 11 9 4 9 13 11 9 11 13 12 10 2 6 4 7 7 5 4 4 5 7 10 11 11 11 16 21 22 22 20 18 18 17 20
19 20 20 21 21 19 19 18 16 13 12 12 12 13 16 17 17 15 12 13 13 13 13 11 8 6 5 5 6 8 10 13 15 16 15 15 19 21 22 24 21 21 19
17 20 21 19 17 15 13 12 15 16 18 17 20 21 21 21 20 18 17 14 13 11 9 8 8 8 8 9 12 14 14 16 16 17 19 20 20 20 24 26 30 25 20
Wind_Direction
172 157 166 143 132 111 102 92 76 64 65 56 57 61 58 60 69 79 79 80 80 80 77 77 75 84 95 115 154 184 211 192 120 113 140 150 144 154 147 133 117 103 88
187 173 174 155 144 123 120 105 94 81 80 66 71 73 65 60 63 73 76 70 70 71 71 71 68 76 81 88 100 103 108 130 144 136 143 143 143 142 134 121 103 93 83
193 179 168 167 161 145 138 127 113 106 92 81 80 80 76 69 65 68 74 78 75 70 69 70 67 67 69 73 78 88 96 106 141 146 142 151 142 146 128 119 112 104 95
187 183 182 181 182 167 148 137 130 112 105 110 91 92 86 83 78 74 78 76 74 76 73 71 70 66 65 68 75 79 96 106 131 135 131 138 143 147 141 130 112 99 91
191 192 198 190 174 164 154 145 133 117 122 129 99 103 98 85 84 84 76 74 78 79 77 76 70 67 65 70 77 82 95 109 117 117 126 135 145 154 164 156 127 115 90
200 202 201 182 171 171 159 150 139 132 136 132 106 118 110 96 89 92 86 81 85 80 75 72 63 63 67 70 77 90 92 113 121 127 133 134 147 162 171 167 153 142 122
211 197 187 178 175 176 169 171 151 149 151 131 121 127 114 109 111 111 106 101 108 94 82 81 71 69 76 74 77 84 91 98 98 127 134 135 140 165 170 172 187 192 163
138 149 163 185 187 185 181 174 157 156 148 137 133 139 128 105 126 122 112 108 105 104 92 82 82 80 79 80 85 85 85 86 87 95 101 104 104 122 159 190 187 147 136
132 132 148 169 176 191 189 180 168 161 158 149 139 146 140 113 123 145 131 118 118 107 101 100 83 94 91 88 83 85 89 89 95 99 94 85 66 49 151 125 145 146 154
130 119 119 139 181 188 191 181 168 165 164 162 149 146 146 135 96 184 168 134 128 113 99 109 93 78 125 115 82 89 96 89 93 108 106 83 63 62 111 217 246 206 162
132 117 107 103 127 161 182 176 164 166 162 156 150 138 137 126 100 125 191 177 148 122 111 113 100 89 94 97 123 96 90 85 105 125 136 109 83 74 73 77 70 213 184
130 107 108 112 115 145 160 161 167 167 164 156 150 138 126 119 133 90 108 196 161 128 115 107 100 89 84 92 83 63 35 315 220 172 173 157 135 97 79 83 84 74 87
122 119 121 120 118 128 145 158 164 171 161 149 147 135 124 114 111 120 121 138 147 137 119 115 108 93 104 96 64 47 59 79 120 130 141 155 126 99 95 58 26 81 91
121 129 132 128 122 121 126 139 146 147 150 152 152 144 135 130 122 120 118 120 121 122 124 122 98 95 96 67 72 61 57 79 91 91 80 75 197 190 183 242 315 255 243
134 137 133 131 129 125 123 121 130 135 151 162 158 154 152 150 136 122 116 117 114 114 102 80 46 15 341 269 274 327 100 114 108 91 65 54 52 34 313 330 305 302 238
140 140 137 131 128 130 127 117 113 115 121 134 147 160 155 163 159 143 140 132 115 106 75 33 1 61 78 83 82 232 217 107 71 47 7 350 20 359 357 311 303 314 319
146 148 144 137 133 130 129 130 129 129 130 132 140 152 161 165 168 173 163 147 137 84 24 16 92 120 121 101 89 93 115 45 324 296 291 344 335 337 327 341 346 318 322
161 158 153 149 144 141 141 141 134 133 138 139 139 142 142 148 149 148 159 156 143 83 21 15 149 162 155 130 42 22 1 318 324 280 258 272 290 301 324 323 357 321 299
171 176 177 173 171 163 161 161 155 150 146 147 141 149 152 164 184 196 201 183 196 348 10 265 211 225 224 294 286 282 300 320 312 312 293 294 291 292 310 301 315 338 313
214 209 208 214 200 193 196 191 189 192 188 187 184 169 166 175 186 186 187 198 225 243 313 195 211 224 244 282 275 267 280 297 299 291 314 304 302 290 298 286 293 305 317
167 155 150 155 182 179 190 206 211 212 215 213 211 198 191 196 192 200 224 253 250 259 244 186 195 205 226 248 271 286 278 277 282 284 300 300 323 298 286 288 275 285 296
158 164 169 157 161 175 182 198 214 223 229 234 231 218 213 226 229 239 260 275 267 252 256 253 248 267 269 279 315 295 287 284 282 279 292 306 307 323 290 278 284 285 288
186 187 193 163 145 148 135 144 99 90 204 235 235 224 217 228 242 260 272 284 290 298 252 233 246 249 243 265 280 294 296 295 296 287 279 282 287 289 285 276 278 286 298
210 204 160 140 125 125 105 103 91 86 81 134 209 221 231 256 280 287 297 307 321 131 153 218 227 232 266 288 303 293 288 292 292 294 288 281 283 279 275 271 279 278 295
126 128 124 118 112 102 94 91 70 66 62 79 111 115 115 112 106 102 105 116 112 110 102 103 91 76 49 12 345 328 308 300 296 291 292 292 288 287 284 279 277 282 288
135 129 120 112 101 92 79 66 77 82 103 108 117 116 113 106 103 100 97 94 90 87 81 69 49 28 14 2 353 336 319 315 316 314 310 306 299 288 280 277 277 278 282